Location: Holyhead Bay
(53.3667°N, 4.6667°W)
Time: 19:52:41
(UTC+00:00)

ISS - Pass Details

Date: 24 November 2020
Orbit: 418 x 419 km, 51.6° (Epoch: 18 January)

Event Time Altitude Azimuth Distance (km) Brightness Sun altitude
Rises 16:55:59 0° 198° (SSW) 2,357 0.8 -6.7°
Reaches altitude 10° 16:58:59 10° 169° (SSE) 1,497 -0.8 -7.1°
Maximum altitude 17:00:32 13° 141° (SE) 1,344 -1.3 -7.3°
Drops below altitude 10° 17:02:06 10° 113° (ESE) 1,501 -1.3 -7.6°
Enters shadow 17:03:14 - 99° (E) 1,772 -1.1 -7.7°
